Terminal Aerodrome Forecast
Issued by NWS

Home | Current Version | Previous Version | Text Only | Print | Product List | Glossary On
Versions: 1 2 3 4 5 6 7 8 9 10 11 12 13 14 15 16 17 18 19 20 21 22 23 24 25 26 27 28 29 30 31 32 33 34
000
FTUS44 KMOB 291232 AAA
TAFBFM
TAF AMD
KBFM 291232Z 2913/3012 05007KT 4SM BR SCT003 BKN015
      TEMPO 2913/2914 1/2SM FG OVC003
     FM291600 13009KT P6SM VCTS BKN040CB
     FM292100 16007KT P6SM SCT040 SCT200=

USA.gov is the U.S. government's official web portal to all federal, state and local government web resources and services.